This demonstration page uses our WeatherBlox Daily Observations layout. Learn more.

Left ArrowRight Arrow

41.86663, -103.66717

Hourly Observations for November 11, 2016

Temp ( °F °C ) Dew Point ( °F °C ) Humidity (%) Winds ( mph kmh ) Pressure ( in mb ) Visibility ( mi km ) Precip ( " mm )
12:53 am 00:53 Clear 35 1.7 27 -2.8 72 72 NE 3 6 30.44 1031 10 16 N/A
1:53 am 01:53 Clear 32 undefined 26 -3.3 79 79 NE 6 9 30.45 1031 10 16 N/A
2:53 am 02:53 Clear 29 -1.7 24 -4.4 82 82 N N/A 30.45 1031 10 16 N/A
3:53 am 03:53 Clear 26 -3.3 23 -5 88 88 WNW 5 7 30.48 1032 10 16 N/A
4:53 am 04:53 Clear 28 -2.2 24 -4.4 85 85 NNW 5 7 30.49 1033 10 16 N/A
5:53 am 05:53 Clear 26 -3.3 21 -6.1 81 81 N N/A 30.53 1034 10 16 N/A
6:53 am 06:53 Sunny 26 -3.3 22 -5.6 84 84 NNE 7 11 30.55 1034 10 16 N/A
7:53 am 07:53 Sunny 32 undefined 25 -3.9 75 75 N N/A 30.55 1035 10 16 N/A
8:53 am 08:53 Sunny with Light Snow 36 2.2 28 -2.2 73 73 ESE 5 7 30.54 1034 9 14 N/A
9:53 am 09:53 Sunny 45 7.2 31 -0.6 58 58 E 10 17 30.50 1033 10 16 N/A
10:53 am 10:53 Sunny 50 10 30 -1.1 46 46 ESE 10 17 30.46 1032 10 16 N/A
11:53 am 11:53 Sunny 55 12.8 30 -1.1 38 38 ESE 14 22 30.42 1030 10 16 N/A
12:53 pm 12:53 Sunny 59 15 26 -3.3 28 28 S 12 19 30.37 1029 10 16 N/A
1:53 pm 13:53 Sunny 60 15.6 24 -4.4 25 25 SSE 12 19 30.35 1028 10 16 N/A
2:53 pm 14:53 Sunny 59 15 24 -4.4 26 26 SSE 14 22 30.35 1028 10 16 N/A
3:53 pm 15:53 Sunny 57 13.9 26 -3.3 30 30 SE 12 19 30.35 1028 10 16 N/A
4:53 pm 16:53 Clear 50 10 26 -3.3 39 39 SE 12 19 30.38 1029 10 16 N/A
5:53 pm 17:53 Clear 42 5.6 24 -4.4 49 49 E 10 17 30.41 1030 10 16 N/A
6:53 pm 18:53 Clear 40 4.4 23 -5 51 51 ESE 10 17 30.42 1030 10 16 N/A
7:53 pm 19:53 Clear 39 3.9 23 -5 53 53 SE 12 19 30.39 1029 10 16 N/A
8:53 pm 20:53 Clear with Light Snow 36 2.2 23 -5 59 59 ESE 13 20 30.40 1029 9 14 N/A
9:53 pm 21:53 Clear with Light Snow 35 1.7 23 -5 61 61 undefined N/A 30.36 1028 9 14 N/A
10:53 pm 22:53 Clear with Light Snow 34 1.1 23 -5 64 64 undefined N/A 30.34 1027 9 14 N/A
11:53 pm 23:53 Clear with Light Snow 35 1.7 23 -5 61 61 ESE 13 20 30.31 1027 9 14 N/A

Powered by AerisWeather